Weather Roundup
Issued by NWS

Home | Current Version | Previous Version | Graphics & Text | Print | Product List | Glossary Off
Versions: 1 2 3 4 5 6 7 8 9 10 11 12 13 14 15 16 17 18 19 20 21 22 23 24 25 26 27 28 29 30 31 32 33 34 35 36 37 38 39 40 41 42 43 44 45 46 47 48 49 50

000
NZUS93 KARX 180610
HRRWXR

CURRENT HOURLY OBSERVATIONS ACROSS
MUCH OF THE UPPER MISSISSIPPI VALLEY
NATIONAL WEATHER SERVICE LA CROSSE WI
100 AM CDT THU SEP 18 2014


...SOUTHEAST MINNESOTA...


CITY           SKY/WX    TMP DP  RH WIND       PRES   REMARKS
ROCHESTER      CLEAR     51  49  92 S6        30.04S
ROCHESTER/MAYO FAIR      57  50  78 E3        30.04S
WINONA         CLEAR     54  54 100 CALM      30.04S
AUSTIN         CLEAR     50  48  93 CALM      30.03S
ALBERT LEA     CLEAR     52  52 100 CALM      30.03S
DODGE CENTER   CLEAR     54  50  87 CALM      30.03S
PRESTON        CLEAR     54  53  97 S3        30.05R
OWATONNA       CLEAR     52  50  93 CALM      30.03S
FARIBAULT      HAZE      52  46  82 CALM      30.03S VSB 3/4
$$

...ELSEWHERE IN MINNESOTA...


CITY           SKY/WX    TMP DP  RH WIND       PRES   REMARKS
MINNEAPOLIS    CLEAR     56  52  86 NE8       30.04R
INTNL FALLS    CLEAR     36  34  92 E5        30.11S WCI  32
DULUTH         CLOUDY    45  39  79 E12       30.12S
RED WING       CLEAR     54  54 100 E8        30.03R
REDWOOD FALLS  CLEAR     57  53  86 E3        30.01R
MANKATO        CLEAR     55  48  76 SE6       30.02R
WORTHINGTON    PTCLDY    52  50  93 CALM      30.02S
FAIRMONT       CLEAR     54  46  76 CALM      30.01S
$$

...SOUTHWEST WISCONSIN...


CITY           SKY/WX    TMP DP  RH WIND       PRES   REMARKS
LA CROSSE      CLEAR     53  50  89 SE6       30.04R
PRAIRIE DU CHI PTCLDY    49  48  95 CALM      30.04S
BOSCOBEL       FOG       49  47  93 CALM      30.05S VSB 1/4
LONE ROCK      FOG       51  47  86 CALM      30.05R VSB 1/4
PLATTEVILLE    CLEAR     52  48  87 CALM      30.04F
FORT MC COY    CLEAR     44  44  98 CALM      30.05S
CAMP DOUGLAS   FOG       41  41 100 CALM      30.04S VSB 1/2
VIROQUA        FAIR      50  50 100 CALM      30.05R
WIS DELLS      CLEAR     47  46  93 CALM      30.05R
$$

...ELSEWHERE IN WISCONSIN...


CITY           SKY/WX    TMP DP  RH WIND       PRES   REMARKS
MILWAUKEE      CLEAR     56  47  71 W3        30.04S
MADISON        CLEAR     48  47  96 CALM      30.05R FOG
GREEN BAY      CLOUDY    51  46  83 NE16G25   30.10R
EAU CLAIRE     CLEAR     51  48  89 NE6       30.06R
BLACK RVR FLS  FOG       43  43 100 CALM      30.04R VSB<1/4
MEDFORD        CLEAR     46  45  97 NE6       30.08R
WAUSAU         CLOUDY    50  47  89 E9        30.08R
WIS RAPIDS     CLEAR     52  49  89 E10       30.08R
MARSHFIELD     CLEAR     52  50  93 E9        30.07R
RICE LAKE      CLEAR     46  44  92 N6        30.10R
$$

...NORTHEAST IOWA...


CITY           SKY/WX    TMP DP  RH WIND       PRES   REMARKS
WATERLOO       CLEAR     50  47  89 NE3       30.02S
DUBUQUE        CLEAR     50  48  93 CALM      30.05R
DECORAH        CLEAR     54  50  87 CALM      30.03S
MASON CITY     PTCLDY    49  48  97 CALM      30.04S
CHARLES CITY   CLEAR     52  48  87 E5        30.04S
OELWEIN        CLEAR     54  50  87 SE6       30.04S
$$

...ELSEWHERE IN IOWA...


CITY           SKY/WX    TMP DP  RH WIND       PRES   REMARKS
DES MOINES     CLEAR     62  57  83 CALM      30.01R
IOWA CITY      FOG       49  49 100 CALM      30.04S VSB 1/4
FORT DODGE     CLEAR     54  50  87 CALM      30.02R
MARSHALLTOWN   CLEAR     50  49  96 E6        30.01S
CEDAR RAPIDS   CLEAR     51  51 100 CALM      30.02S FOG
$$

...NORTHERN ILLINOIS...


CITY           SKY/WX    TMP DP  RH WIND       PRES   REMARKS
CHICAGO-OHARE  CLEAR     56  48  74 CALM      30.04R
DUPAGE         CLEAR     51  47  86 CALM      30.04S
CHICAGO-MIDWAY CLEAR     59  51  75 CALM      30.04R
MOLINE         CLEAR     49  48  97 CALM      30.04R
ROCKFORD       CLEAR     51  48  89 CALM      30.06S
STERLING       CLEAR     46  45  93 CALM      30.04S
PEORIA         CLEAR     55  51  86 CALM      30.03S
$$

NOTE: "FAIR" INDICATES FEW OR NO CLOUDS BELOW 12,000 FEET WITH NO
SIGNIFICANT WEATHER AND/OR OBSTRUCTIONS TO VISIBILITY. WIND
SPEEDS ARE IN MILES-PER-HOUR.



USA.gov is the U.S. government's official web portal to all federal, state and local government web resources and services.